Parsons, KS

1:09 AM CDT on May 28, 2017 (GMT -0500)
Tri-City

Weather History for KPPF - January, 2013

Change the Weather History Date:

Thursday, January 17, 2013

  Actual Average Record
Temperature  
Mean Temperature 38 °F -  
Max Temperature 51 °F 40 °F 65 °F (1952)
Min Temperature 25 °F 21 °F -11 °F (1997)
Degree Days  
Heating Degree Days 26    
Moisture  
Dew Point 26 °F    
Average Humidity 68    
Maximum Humidity 85    
Minimum Humidity 39    
Precipitation  
Precipitation 0.00 in - - ()
Sea Level Pressure  
Sea Level Pressure 30.43 in    
Wind  
Wind Speed 6 mph (North)    
Max Wind Speed 14 mph    
Max Gust Speed 18 mph    
Visibility 10 miles    
Events      
Averages and records for this station are not official NWS values.
T = Trace of Precipitation, MM = Missing Value Source: NWS Daily Summary

Daily Weather History Graph

Daily Weather History Graph

Search for Another Location

Airport or City:

Trip Planner

Search our weather history database for the weather conditions in past years. The results will help you decide how hot, cold, wet, or windy it might be!

Date:

Astronomy

Jan. 17, 2013 Rise Set
Actual Time 7:34 AM CST 5:30 PM CST
Civil Twilight 7:05 AM CST 5:58 PM CST
Nautical Twilight 6:34 AM CST 6:30 PM CST
Astronomical Twilight 6:02 AM CST 7:02 PM CST
Moon 10:51 AM CST (1/17) No Moon Set
Length of Visible Light 10h 52m
Length of Day
9h 56m
Waxing Crescent, 38% of the Moon is Illuminated
Jan 17
Waxing Crescent
Jan 18
First Quarter
Jan 26
Full
Feb 3
Last Quarter
Feb 10
New

Hourly Weather History & Observations

Time (CST) Temp. Windchill Dew Point Humidity Pressure Visibility Wind Dir Wind Speed Gust Speed Precip Events Conditions
12:52 AM 27.0 °F 23.0 °F 19.9 °F 75% 30.23 in 10.0 mi NNW 3.5 mph - N/A   Clear
1:52 AM 33.1 °F 26.1 °F 27.0 °F 78% 30.25 in 10.0 mi NNW 8.1 mph - N/A   Clear
2:52 AM 35.1 °F 27.4 °F 28.0 °F 76% 30.29 in 10.0 mi North 10.4 mph - N/A   Clear
3:52 AM 35.1 °F 28.6 °F 28.0 °F 76% 30.30 in 10.0 mi North 8.1 mph - N/A   Clear
5:52 AM 32.0 °F 24.2 °F 27.0 °F 82% 30.37 in 10.0 mi North 9.2 mph - N/A   Clear
6:52 AM 32.0 °F 24.8 °F 27.0 °F 82% 30.39 in 10.0 mi North 8.1 mph - N/A   Clear
7:52 AM 30.0 °F 25.2 °F 26.1 °F 85% 30.42 in 10.0 mi NNW 4.6 mph - N/A   Clear
8:52 AM 35.1 °F 29.3 °F 28.9 °F 78% 30.45 in 10.0 mi North 6.9 mph - N/A   Clear
9:52 AM 41.0 °F 35.2 °F 30.9 °F 67% 30.48 in 10.0 mi North 9.2 mph - N/A   Clear
10:52 AM 43.0 °F 36.4 °F 30.0 °F 60% 30.49 in 10.0 mi NNW 12.7 mph - N/A   Clear
11:52 AM 46.0 °F 39.9 °F 28.9 °F 51% 30.49 in 10.0 mi North 13.8 mph 18.4 mph N/A   Clear
12:52 PM 48.9 °F - 28.9 °F 46% 30.47 in 10.0 mi North 10.4 mph - N/A   Clear
1:52 PM 50.0 °F - 27.0 °F 41% 30.45 in 10.0 mi NE 8.1 mph - N/A   Clear
2:52 PM 51.1 °F - 27.0 °F 39% 30.45 in 10.0 mi Variable 5.8 mph - N/A   Clear
3:52 PM 51.1 °F - 28.0 °F 41% 30.45 in 10.0 mi NNE 5.8 mph - N/A   Clear
4:52 PM 50.0 °F - 27.0 °F 41% 30.46 in 10.0 mi Calm Calm - N/A   Clear
5:52 PM 39.9 °F - 26.1 °F 58% 30.48 in 10.0 mi North - - N/A   Clear
7:52 PM 28.9 °F - 23.0 °F 78% 30.50 in 10.0 mi Calm Calm - N/A   Clear
8:52 PM 27.0 °F - 21.9 °F 81% 30.49 in 10.0 mi Calm Calm - N/A   Clear
9:52 PM 26.1 °F - 21.9 °F 84% 30.48 in 10.0 mi Calm Calm - N/A   Clear
10:52 PM 26.1 °F - 21.9 °F 84% 30.49 in 10.0 mi Calm Calm - N/A   Clear
11:52 PM 25.0 °F - 21.0 °F 85% 30.48 in 10.0 mi Calm Calm - N/A   Clear